Location: Dealu Mare
(46.0500°N, 22.8167°E)
Time: 21:07:48
(UTC+00:00)

Cosmos 1484 Rocket - Pass Details

Date: 15 January 2026
Orbit: 439 x 467 km, 97.6° (Epoch: 10 February)

Event Time Altitude Azimuth Distance (km) Brightness Sun altitude
Rises 05:12:47 0° 1° (N) 2,452 5.9 -9.3°
Reaches altitude 10° 05:15:03 10° 347° (NNW) 1,580 4.8 -8.9°
Maximum altitude 05:17:49 24° 292° (WNW) 977 3.5 -8.5°
Drops below altitude 10° 05:20:36 10° 236° (WSW) 1,582 4.8 -8.0°
Sets 05:22:53 0° 222° (SW) 2,456 5.9 -7.7°
